FW8130 Weather Reports


time (UTC)temp
F
wind
direction
speed
knots
gust
knots
rain 1hr
in
rain 24hr
in
rain mn
in
humidity
%
barometer
mb
20260503034545 80 265 1.7 7.8 0.00 0.00 0.00 76 1014.9
20260503034037 80 218 1.7 7.8 0.00 0.00 0.00 76 1014.8
20260503033537 81 273 0.9 6.1 0.00 0.00 0.00 76 1014.8
20260503033043 81 0 0.0 6.1 0.00 0.00 0.00 76 1014.7
20260503032538 81 0 1.7 7.0 0.00 0.00 0.00 76 1014.4
20260503032037 81 260 0.9 7.0 0.00 0.00 0.00 75 1014.6
20260503031553 81 172 0.9 6.1 0.00 0.00 0.00 75 1014.5
20260503031038 81 292 0.9 4.3 0.00 0.00 0.00 75 1014.5
20260503030539 81 266 0.9 3.5 0.00 0.00 0.00 75 1014.5
20260503030050 81 281 0.9 5.2 0.00 0.00 0.00 74 1014.4
20260503025538 81 0 0.9 6.1 0.00 0.00 0.00 74 1014.5
20260503025038 81 256 0.9 6.1 0.00 0.00 0.00 74 1014.4
20260503024548 81 247 1.7 8.7 0.00 0.00 0.00 74 1014.4
20260503024038 81 309 1.7 8.7 0.00 0.00 0.00 73 1014.4
20260503023537 82 268 1.7 7.0 0.00 0.00 0.00 73 1014.5
20260503023043 82 270 0.9 7.0 0.00 0.00 0.00 73 1014.5
20260503022537 82 207 1.7 5.2 0.00 0.00 0.00 73 1014.5
20260503022037 82 251 0.0 5.2 0.00 0.00 0.00 72 1014.4
20260503021548 82 202 1.7 6.1 0.00 0.00 0.00 72 1014.4
20260503021037 82 262 0.9 7.0 0.00 0.00 0.00 71 1014.3
20260503020538 82 185 1.7 7.0 0.00 0.00 0.00 71 1014.3
20260503020051 82 0 2.6 7.0 0.00 0.00 0.00 71 1014.4
20260503015609 82 235 0.9 7.0 0.00 0.00 0.00 71 1014.4
20260503015039 83 242 1.7 7.0 0.00 0.00 0.00 70 1014.5
20260503014553 83 289 0.9 7.0 0.00 0.00 0.00 70 1014.4
20260503014038 83 282 0.9 9.6 0.00 0.00 0.00 69 1014.4
20260503013538 83 315 1.7 9.6 0.00 0.00 0.00 69 1014.3
20260503013050 83 279 1.7 8.7 0.00 0.00 0.00 68 1014.3
20260503012538 83 291 2.6 7.8 0.00 0.00 0.00 67 1014.2
20260503012037 83 313 1.7 7.8 0.00 0.00 0.00 67 1014.2
20260503011604 84 240 1.7 7.8 0.00 0.00 0.00 66 1014.0
20260503011037 84 0 0.9 6.1 0.00 0.00 0.00 66 1014.0
20260503010539 84 205 1.7 7.8 0.00 0.00 0.00 66 1013.8
20260503010044 84 0 1.7 8.7 0.00 0.00 0.00 66 1013.8
20260503005540 84 302 3.5 8.7 0.00 0.00 0.00 65 1013.8
20260503005037 84 284 2.6 8.7 0.00 0.00 0.00 64 1013.8
20260503004549 85 306 2.6 8.7 0.00 0.00 0.00 64 1013.5
20260503004037 85 288 2.6 10.4 0.00 0.00 0.00 63 1013.5
20260503003539 85 242 0.9 10.4 0.00 0.00 0.00 63 1013.4
20260503003049 85 279 2.6 9.6 0.00 0.00 0.00 62 1013.4
20260503002538 86 243 2.6 9.6 0.00 0.00 0.00 61 1013.3
20260503002038 86 297 0.9 12.2 0.00 0.00 0.00 60 1013.2
20260503001549 86 282 4.3 12.2 0.00 0.00 0.00 59 1013.1
20260503001038 86 307 3.5 12.2 0.00 0.00 0.00 58 1012.9
20260503000537 87 279 2.6 10.4 0.00 0.00 0.00 57 1013.0
20260502235537 87 255 2.6 9.6 0.00 0.00 0.00 54 1012.9
20260502235037 88 192 2.6 9.6 0.00 0.00 0.00 53 1012.8
20260502234548 88 219 1.7 9.6 0.00 0.00 0.00 51 1012.7
20260502234038 88 246 2.6 9.6 0.00 0.00 0.00 50 1012.5
20260502233538 88 275 2.6 9.6 0.00 0.00 0.00 50 1012.4
20260502233042 88 278 2.6 7.0 0.00 0.00 0.00 50 1012.4
20260502232539 88 306 0.9 7.8 0.00 0.00 0.00 50 1012.4
20260502232038 89 189 1.7 7.8 0.00 0.00 0.00 51 1012.2
20260502231612 89 11 1.7 7.8 0.00 0.00 0.00 48 1012.1
20260502231038 89 0 1.7 7.8 0.00 0.00 0.00 50 1012.0
20260502230538 89 155 1.7 8.7 0.00 0.00 0.00 49 1011.8
20260502230051 90 224 1.7 10.4 0.00 0.00 0.00 48 1011.8
20260502225539 90 279 2.6 10.4 0.00 0.00 0.00 48 1011.7
20260502225039 90 241 1.7 9.6 0.00 0.00 0.00 48 1011.7
20260502224555 90 265 2.6 11.3 0.00 0.00 0.00 47 1011.7
20260502224038 90 269 1.7 11.3 0.00 0.00 0.00 50 1011.5
20260502223538 90 275 3.5 11.3 0.00 0.00 0.00 49 1011.5
20260502223047 91 271 3.5 10.4 0.00 0.00 0.00 49 1011.5
20260502222538 91 319 3.5 10.4 0.00 0.00 0.00 48 1011.4
20260502222040 91 248 2.6 8.7 0.00 0.00 0.00 48 1011.5
20260502221552 91 150 0.9 12.2 0.00 0.00 0.00 47 1011.5
20260502221038 91 181 4.3 12.2 0.00 0.00 0.00 46 1011.5
20260502220537 91 219 2.6 12.2 0.00 0.00 0.00 47 1011.6
20260502220049 92 266 4.3 12.2 0.00 0.00 0.00 46 1011.5
20260502215538 92 240 3.5 12.2 0.00 0.00 0.00 45 1011.4
20260502215038 92 238 3.5 13.9 0.00 0.00 0.00 45 1011.4
20260502214550 92 230 2.6 13.9 0.00 0.00 0.00 44 1011.3
20260502214038 92 273 2.6 13.0 0.00 0.00 0.00 44 1011.4
20260502213537 92 252 3.5 13.0 0.00 0.00 0.00 43 1011.2
20260502213055 92 275 3.5 10.4 0.00 0.00 0.00 42 1011.2
20260502212541 92 257 2.6 12.2 0.00 0.00 0.00 41 1011.1
20260502212038 92 265 4.3 12.2 0.00 0.00 0.00 41 1011.0
20260502211549 92 279 2.6 13.9 0.00 0.00 0.00 42 1010.9
20260502211038 93 181 4.3 13.9 0.00 0.00 0.00 41 1010.9
20260502210538 93 186 3.5 7.8 0.00 0.00 0.00 41 1010.8
20260502210049 92 313 2.6 13.0 0.00 0.00 0.00 44 1010.8
20260502205542 92 309 3.5 13.0 0.00 0.00 0.00 42 1010.8
20260502205040 93 193 3.5 18.2 0.00 0.00 0.00 43 1010.8
20260502204548 93 169 3.5 18.2 0.00 0.00 0.00 44 1010.9
20260502204038 93 304 5.2 18.2 0.00 0.00 0.00 43 1010.8
20260502203538 93 198 3.5 12.2 0.00 0.00 0.00 45 1011.0
20260502203048 93 288 3.5 12.2 0.00 0.00 0.00 47 1010.7
20260502202539 93 261 2.6 16.5 0.00 0.00 0.00 45 1010.8
20260502202037 93 149 2.6 16.5 0.00 0.00 0.00 49 1010.9
20260502201549 93 295 3.5 16.5 0.00 0.00 0.00 48 1011.1
20260502201038 92 280 2.6 11.3 0.00 0.00 0.00 49 1011.2
20260502200537 93 265 3.5 13.0 0.00 0.00 0.00 48 1011.3
20260502200049 93 240 3.5 13.0 0.00 0.00 0.00 47 1011.3
20260502195539 93 302 3.5 13.9 0.00 0.00 0.00 50 1011.3
20260502195038 93 147 4.3 13.9 0.00 0.00 0.00 48 1011.5
20260502194552 93 240 4.3 13.0 0.00 0.00 0.00 48 1011.6
20260502194038 93 248 1.7 13.0 0.00 0.00 0.00 51 1011.7
20260502193538 92 209 3.5 9.6 0.00 0.00 0.00 49 1011.9
20260502193057 92 329 0.9 12.2 0.00 0.00 0.00 50 1011.7
20260502192538 92 164 3.5 12.2 0.00 0.00 0.00 50 1011.8
20260502192038 92 225 3.5 10.4 0.00 0.00 0.00 51 1012.0
20260502191550 92 255 4.3 11.3 0.00 0.00 0.00 54 1011.9
20260502191038 91 150 2.6 13.0 0.00 0.00 0.00 54 1011.9
20260502190538 91 156 5.2 13.0 0.00 0.00 0.00 52 1011.9
20260502190052 91 206 4.3 13.0 0.00 0.00 0.00 53 1012.0
20260502185539 91 233 4.3 13.0 0.00 0.00 0.00 57 1012.0
20260502185038 91 217 2.6 13.0 0.00 0.00 0.00 57 1011.9
20260502184559 91 222 4.3 13.0 0.00 0.00 0.00 57 1011.9
20260502184039 91 305 3.5 11.3 0.00 0.00 0.00 56 1012.0
20260502183539 91 214 3.5 11.3 0.00 0.00 0.00 58 1012.1
20260502183046 91 237 4.3 12.2 0.00 0.00 0.00 61 1012.0
20260502182540 90 144 3.5 12.2 0.00 0.00 0.00 60 1012.0
20260502182038 90 252 2.6 11.3 0.00 0.00 0.00 64 1012.1
20260502181548 90 169 3.5 11.3 0.00 0.00 0.00 64 1012.0
20260502181038 90 225 1.7 10.4 0.00 0.00 0.00 62 1012.0
20260502180538 90 165 2.6 10.4 0.00 0.00 0.00 64 1012.0
20260502164038 90 197 2.6 12.2 0.00 0.00 0.00 69 1012.6
20260502163537 89 192 3.5 12.2 0.00 0.00 0.00 69 1012.7
20260502163050 89 176 4.3 13.0 0.00 0.00 0.00 68 1012.6
20260502162541 89 286 4.3 13.9 0.00 0.00 0.00 68 1012.6
20260502162039 88 211 6.1 13.9 0.00 0.00 0.00 69 1012.8
20260502161624 87 144 4.3 14.8 0.00 0.00 0.00 71 1012.8
20260502161041 87 232 4.3 16.5 0.00 0.00 0.00 71 1012.9
20260502160537 87 182 5.2 17.4 0.00 0.00 0.00 71 1012.9
20260502160108 87 165 7.0 17.4 0.00 0.00 0.00 71 1012.8
20260502152038 87 209 4.3 13.9 0.00 0.00 0.00 71 1013.2
20260502151544 87 205 4.3 13.9 0.00 0.00 0.00 72 1013.4
20260502151037 87 219 4.3 13.0 0.00 0.00 0.00 72 1013.2
20260502150537 86 150 4.3 13.0 0.00 0.00 0.00 71 1013.2
20260502130538 82 165 5.2 13.0 0.00 0.00 0.00 79 1012.6
20260502130104 81 227 2.6 13.0 0.00 0.00 0.00 80 1012.6
20260502123537 80 182 2.6 10.4 0.00 0.00 0.00 83 1012.7
20260502123111 80 202 3.5 10.4 0.00 0.00 0.00 82 1012.7
20260502122540 80 203 3.5 9.6 0.00 0.00 0.00 83 1012.7
20260502122037 79 182 2.6 10.4 0.00 0.00 0.00 84 1012.5
20260502121548 79 67 1.7 12.2 0.00 0.00 0.00 84 1012.7
20260502121040 79 214 3.5 12.2 0.00 0.00 0.00 85 1012.7
20260502120537 78 180 3.5 8.7 0.00 0.00 0.00 85 1012.6
20260502115538 78 162 3.5 10.4 0.00 0.00 0.00 86 1012.6
20260502115038 78 173 1.7 7.0 0.00 0.00 0.00 87 1012.5
20260502114550 77 170 0.9 4.3 0.00 0.00 0.00 87 1012.6
20260502114038 77 191 0.0 3.5 0.00 0.00 0.00 87 1012.7
20260502113540 77 195 0.9 3.5 0.00 0.00 0.00 87 1012.6
20260502113046 77 194 0.9 3.5 0.00 0.00 0.00 87 1012.6
20260502112538 77 188 0.9 3.5 0.00 0.00 0.00 87 1012.6
20260502112037 77 183 0.9 3.5 0.00 0.00 0.00 87 1012.6
20260502111545 77 0 0.0 5.2 0.00 0.00 0.00 87 1012.7
20260502111039 77 175 0.0 5.2 0.00 0.00 0.00 87 1012.7
20260502110537 77 163 0.0 2.6 0.00 0.00 0.00 87 1012.6
20260502110051 77 0 0.9 2.6 0.00 0.00 0.00 87 1012.7
20260502105538 76 0 0.0 1.7 0.00 0.00 0.00 87 1012.6
20260502105039 76 178 0.0 1.7 0.00 0.00 0.00 86 1012.5
20260502104547 76 0 0.0 0.9 0.00 0.00 0.00 86 1012.6
20260502104038 76 0 0.0 0.0 0.00 0.00 0.00 86 1012.5
20260502103538 76 0 0.0 0.0 0.00 0.00 0.00 86 1012.6
20260502103042 77 0 0.0 0.0 0.00 0.00 0.00 86 1012.5
20260502102542 77 0 0.0 0.9 0.00 0.00 0.00 85 1012.6
20260502102038 77 0 0.0 0.9 0.00 0.00 0.00 85 1012.6
20260502101553 77 0 0.0 0.9 0.00 0.00 0.00 85 1012.7
20260502101041 77 0 0.0 1.7 0.00 0.00 0.00 85 1012.7
20260502100537 77 0 0.0 1.7 0.00 0.00 0.00 85 1012.7
20260502091037 77 210 0.9 3.5 0.00 0.00 0.00 86 1012.4
20260502090537 77 217 0.9 4.3 0.00 0.00 0.00 86 1012.5
20260502071037 76 0 0.0 1.7 0.00 0.00 0.00 86 1012.4
20260502070541 76 0 0.0 1.7 0.00 0.00 0.00 86 1012.3
20260502070048 76 0 0.0 1.7 0.00 0.00 0.00 86 1012.2
20260502065538 76 0 0.0 1.7 0.00 0.00 0.00 86 1012.3
20260502065038 76 0 0.0 1.7 0.00 0.00 0.00 86 1012.4
20260502064547 76 0 0.0 1.7 0.00 0.00 0.00 85 1012.4
20260502064039 76 0 0.0 0.0 0.00 0.00 0.00 85 1012.4
20260502063538 76 0 0.0 0.0 0.00 0.00 0.00 85 1012.4
20260502063055 76 0 0.0 0.0 0.00 0.00 0.00 85 1012.6
20260502062538 76 0 0.0 0.0 0.00 0.00 0.00 85 1012.6
20260502062037 76 0 0.0 0.0 0.00 0.00 0.00 85 1012.6
20260502061544 76 0 0.0 0.0 0.00 0.00 0.00 85 1012.7
20260502061037 76 0 0.0 1.7 0.00 0.00 0.00 84 1012.7
20260502060537 76 0 0.0 1.7 0.00 0.00 0.00 84 1012.5
20260502060045 76 190 0.0 1.7 0.00 0.00 0.00 84 1012.5
20260502055540 76 0 0.0 1.7 0.00 0.00 0.00 84 1012.6
20260502055038 76 0 0.0 1.7 0.00 0.00 0.00 84 1012.7
20260502054550 76 193 0.0 1.7 0.00 0.00 0.00 84 1012.7
20260502054038 76 0 0.0 2.6 0.00 0.00 0.00 84 1012.5
20260502053538 76 0 0.0 2.6 0.00 0.00 0.00 84 1012.6
20260502053048 76 173 0.0 2.6 0.00 0.00 0.00 84 1012.6
20260502052538 77 171 0.0 2.6 0.00 0.00 0.00 84 1012.7
20260502052039 77 0 0.0 2.6 0.00 0.00 0.00 84 1012.8
20260502051544 77 0 0.0 1.7 0.00 0.00 0.00 84 1012.9
20260502051038 77 0 0.0 0.9 0.00 0.00 0.00 83 1013.0
20260502050538 77 0 0.0 3.5 0.00 0.00 0.00 83 1013.0
20260502050047 77 0 0.0 3.5 0.00 0.00 0.00 83 1013.0
20260502045538 77 0 0.0 1.7 0.00 0.00 0.00 83 1013.0
20260502045038 77 0 0.0 1.7 0.00 0.00 0.00 83 1012.9
20260502044544 77 149 0.0 0.9 0.00 0.00 0.00 83 1013.1
20260502044041 77 0 0.0 0.9 0.00 0.00 0.00 82 1013.3
20260502043537 77 0 0.0 0.0 0.00 0.00 0.00 82 1013.2
20260502043046 77 0 0.0 0.9 0.00 0.00 0.00 82 1013.3
20260502042538 77 0 0.0 0.9 0.00 0.00 0.00 82 1013.4
20260502042038 77 0 0.0 0.0 0.00 0.00 0.00 81 1013.3
20260502041547 78 0 0.0 0.0 0.00 0.00 0.00 81 1013.4
20260502041038 78 0 0.0 0.0 0.00 0.00 0.00 81 1013.5
20260502040538 78 0 0.0 0.9 0.00 0.00 0.00 80 1013.4
20260502040047 78 0 0.0 3.5 0.00 0.00 0.00 80 1013.6
20260502035538 78 0 0.0 3.5 0.00 0.00 0.00 80 1013.5
20260502035038 78 0 0.0 2.6 0.00 0.00 0.00 80 1013.5